Location: Milton
(43.5183°N, 79.8775°W)
Time: 22:40:27
(UTC+00:00)

ESTCUBE 1 - Pass Details

Date: 07 April 2023
Orbit: 640 x 654 km, 97.9° (Epoch: 28 May)

Event Time Altitude Azimuth Distance (km) Brightness Sun altitude
Exits shadow 02:20:41 22° 39° (NE) 1,443 ? -25.2°
Drops below altitude 10° 02:23:00 10° 12° (NNE) 2,073 ? -25.6°
Sets 02:25:30 0° 359° (N) 2,988 ? -25.9°
